This is the latest recevied weather packets stored in our database for station/object N1SU-13. If no packets are shown the sender has not sent any weather packets the latest 1 day(s).
| Time | Temp. | Humidity | Pressure | Rain* | Wind** | Luminosity | Snow |
|---|---|---|---|---|---|---|---|
| 1778058178 | 11.67° C | 88% | 1016.2 hPa | - | - | - | - |
| 1778055768 | 11.67° C | 87% | 1016 hPa | - | - | - | - |
| 1778055179 | 11.67° C | 87% | 1016 hPa | - | - | - | - |
| 1778053946 | 11.67° C | 86% | 1015.9 hPa | - | - | - | - |
| 1778053372 | 11.67° C | 86% | 1016 hPa | - | - | - | - |
| 1778052142 | 12.22° C | 85% | 1016 hPa | - | - | - | - |
| 1778047573 | 13.33° C | 81% | 1015 hPa | - | - | - | - |
| 1778046226 | 13.33° C | 81% | 1015 hPa | - | - | - | - |
| 1778045650 | 13.33° C | 81% | 1014.8 hPa | - | - | - | - |
| 1778044388 | 13.89° C | 79% | 1014.8 hPa | - | - | - | - |
| 1778043144 | 14.44° C | 78% | 1014.6 hPa | - | - | - | - |
| 1778042489 | 14.44° C | 77% | 1014.6 hPa | - | - | - | - |
| 1778041790 | 15° C | 76% | 1014.5 hPa | - | - | - | - |
| 1778041114 | 15.56° C | 74% | 1014.4 hPa | - | - | - | - |
| 1778040475 | 16.11° C | 73% | 1014.3 hPa | - | - | - | - |
| 1778039247 | 16.67° C | 70% | 1014 hPa | - | - | - | - |
| 1778038673 | 17.22° C | 69% | 1014 hPa | - | - | - | - |
| 1778038082 | 18.33° C | 66% | 1013.7 hPa | - | - | - | - |
| 1778037403 | 18.89° C | 63% | 1013.5 hPa | - | - | - | - |
| 1778036771 | 20° C | 59% | 1013.3 hPa | - | - | - | - |
| 1778036192 | 21.67° C | 53% | 1013 hPa | - | - | - | - |
| 1778035500 | 22.78° C | 50% | 1012.8 hPa | - | - | - | - |
| 1778034932 | 23.33° C | 49% | 1012.8 hPa | - | - | - | - |
| 1778034238 | 23.89° C | 48% | 1012.7 hPa | - | - | - | - |
| 1778033085 | 23.33° C | 49% | 1012.6 hPa | - | - | - | - |
* Rain since midnight (hover to see other rain measurements)
** Current wind speed in m/s (hover to see current wind gust speed)